Wetterdaten: Samstag, 29.03.2014
Datum Zeit Temp. A. Temp. A. min Temp. A. max Feuchte A. Bod.Feucht 4 Luftdruck Regen Wind Richtung Richtung Sonnenschein ET Solar Taupunkt Windchill Windben Empfang
29.03.2014 00:00 7,6 C 0,0 C 0,0 C 66 % 0 cb 1016,5 hPa 0,0 l/m 6,4 km/h (2 Bft) W 270 0 min 0,000 mm 0 W/m 1,7 C 6,6 C 6,4 km/h (2 Bft) 0,00 %
29.03.2014 00:05 7,6 C 0,0 C 0,0 C 66 % 0 cb 1016,5 hPa 0,0 l/m 9,4 km/h (2 Bft) N 355 0 min 0,000 mm 0 W/m 1,7 C 5,9 C 9,4 km/h (2 Bft) 0,00 %
29.03.2014 00:10 7,6 C 0,0 C 0,0 C 66 % 0 cb 1016,5 hPa 0,0 l/m 10,9 km/h (2 Bft) N-NW 345 0 min 0,000 mm 0 W/m 1,7 C 5,6 C 10,9 km/h (2 Bft) 0,00 %
29.03.2014 00:15 7,5 C 0,0 C 0,0 C 67 % 0 cb 1016,5 hPa 0,0 l/m 8,8 km/h (2 Bft) N-NO 20 0 min 0,000 mm 0 W/m 1,8 C 5,9 C 8,8 km/h (2 Bft) 0,00 %
29.03.2014 00:20 7,6 C 0,0 C 0,0 C 67 % 0 cb 1016,5 hPa 0,0 l/m 12,7 km/h (3 Bft) N-NO 25 0 min 0,000 mm 0 W/m 1,9 C 5,3 C 12,7 km/h (3 Bft) 0,00 %
29.03.2014 00:25 7,5 C 0,0 C 0,0 C 66 % 0 cb 1016,5 hPa 0,0 l/m 10,3 km/h (2 Bft) N-NO 25 0 min 0,000 mm 0 W/m 1,6 C 5,6 C 10,3 km/h (2 Bft) 0,00 %
29.03.2014 00:30 7,4 C 0,0 C 0,0 C 67 % 0 cb 1016,5 hPa 0,0 l/m 10,9 km/h (2 Bft) W-SW 240 0 min 0,000 mm 0 W/m 1,7 C 5,4 C 10,9 km/h (2 Bft) 0,00 %
29.03.2014 00:35 7,3 C 0,0 C 0,0 C 67 % 0 cb 1017,5 hPa 0,0 l/m 8,2 km/h (2 Bft) N-NW 345 0 min 0,000 mm 0 W/m 1,6 C 5,8 C 8,2 km/h (2 Bft) 0,00 %
29.03.2014 00:40 7,2 C 0,0 C 0,0 C 67 % 0 cb 1017,5 hPa 0,0 l/m 10,3 km/h (2 Bft) W-NW 300 0 min 0,000 mm 0 W/m 1,5 C 5,2 C 10,3 km/h (2 Bft) 0,00 %
29.03.2014 00:45 7,0 C 0,0 C 0,0 C 68 % 0 cb 1017,5 hPa 0,0 l/m 12,1 km/h (2 Bft) N-NW 345 0 min 0,000 mm 0 W/m 1,5 C 4,7 C 12,1 km/h (2 Bft) 0,00 %
29.03.2014 00:50 6,9 C 0,0 C 0,0 C 68 % 0 cb 1016,5 hPa 0,0 l/m 7,9 km/h (2 Bft) N-NO 25 0 min 0,000 mm 0 W/m 1,4 C 5,4 C 7,9 km/h (2 Bft) 0,00 %
29.03.2014 00:55 7,0 C 0,0 C 0,0 C 68 % 0 cb 1016,5 hPa 0,0 l/m 10,6 km/h (2 Bft) N 350 0 min 0,000 mm 0 W/m 1,5 C 4,9 C 10,6 km/h (2 Bft) 0,00 %
29.03.2014 01:00 6,9 C 0,0 C 0,0 C 68 % 0 cb 1016,5 hPa 0,0 l/m 7,6 km/h (2 Bft) N-NO 15 0 min 0,000 mm 0 W/m 1,4 C 5,5 C 7,6 km/h (2 Bft) 0,00 %
29.03.2014 01:05 6,8 C 0,0 C 0,0 C 68 % 0 cb 1016,5 hPa 0,0 l/m 7,0 km/h (2 Bft) N 0 0 min 0,000 mm 0 W/m 1,3 C 5,5 C 7,0 km/h (2 Bft) 0,00 %
29.03.2014 01:10 6,7 C 0,0 C 0,0 C 69 % 0 cb 1016,5 hPa 0,0 l/m 10,3 km/h (2 Bft) N 5 0 min 0,000 mm 0 W/m 1,4 C 4,6 C 10,3 km/h (2 Bft) 0,00 %
29.03.2014 01:15 6,6 C 0,0 C 0,0 C 69 % 0 cb 1016,5 hPa 0,0 l/m 9,4 km/h (2 Bft) W-NW 300 0 min 0,000 mm 0 W/m 1,3 C 4,7 C 9,4 km/h (2 Bft) 0,00 %
29.03.2014 01:20 6,6 C 0,0 C 0,0 C 69 % 0 cb 1016,5 hPa 0,0 l/m 10,6 km/h (2 Bft) N-NW 340 0 min 0,000 mm 0 W/m 1,3 C 4,5 C 10,6 km/h (2 Bft) 0,00 %
29.03.2014 01:25 6,6 C 0,0 C 0,0 C 69 % 0 cb 1016,5 hPa 0,0 l/m 9,4 km/h (2 Bft) N-NO 20 0 min 0,000 mm 0 W/m 1,3 C 4,7 C 9,4 km/h (2 Bft) 0,00 %
29.03.2014 01:30 6,4 C 0,0 C 0,0 C 69 % 0 cb 1016,5 hPa 0,0 l/m 7,6 km/h (2 Bft) O-SO 120 0 min 0,000 mm 0 W/m 1,1 C 4,9 C 7,6 km/h (2 Bft) 0,00 %
29.03.2014 01:35 6,6 C 0,0 C 0,0 C 69 % 0 cb 1016,5 hPa 0,0 l/m 10,9 km/h (2 Bft) N-NW 340 0 min 0,000 mm 0 W/m 1,3 C 4,4 C 10,9 km/h (2 Bft) 0,00 %
29.03.2014 01:40 6,4 C 0,0 C 0,0 C 69 % 0 cb 1016,5 hPa 0,0 l/m 7,3 km/h (2 Bft) N 10 0 min 0,000 mm 0 W/m 1,1 C 5,0 C 7,3 km/h (2 Bft) 0,00 %
29.03.2014 01:45 6,4 C 0,0 C 0,0 C 69 % 0 cb 1016,5 hPa 0,0 l/m 9,1 km/h (2 Bft) N 5 0 min 0,000 mm 0 W/m 1,1 C 4,5 C 9,1 km/h (2 Bft) 0,00 %
29.03.2014 01:50 6,4 C 0,0 C 0,0 C 69 % 0 cb 1016,5 hPa 0,0 l/m 6,7 km/h (2 Bft) N-NO 30 0 min 0,000 mm 0 W/m 1,1 C 5,1 C 6,7 km/h (2 Bft) 0,00 %
29.03.2014 01:55 6,2 C 0,0 C 0,0 C 70 % 0 cb 1016,5 hPa 0,0 l/m 7,6 km/h (2 Bft) N-NO 20 0 min 0,000 mm 0 W/m 1,1 C 4,6 C 7,6 km/h (2 Bft) 0,00 %
29.03.2014 02:00 6,2 C 0,0 C 0,0 C 70 % 0 cb 1016,5 hPa 0,0 l/m 5,1 km/h (1 Bft) W 270 0 min 0,000 mm 0 W/m 1,1 C 5,4 C 5,1 km/h (1 Bft) 0,00 %
29.03.2014 02:05 6,2 C 0,0 C 0,0 C 70 % 0 cb 1016,5 hPa 0,0 l/m 8,2 km/h (2 Bft) N 5 0 min 0,000 mm 0 W/m 1,1 C 4,5 C 8,2 km/h (2 Bft) 0,00 %
29.03.2014 02:10 6,2 C 0,0 C 0,0 C 70 % 0 cb 1016,5 hPa 0,0 l/m 7,6 km/h (2 Bft) NW 320 0 min 0,000 mm 0 W/m 1,1 C 4,6 C 7,6 km/h (2 Bft) 0,00 %
29.03.2014 02:15 6,2 C 0,0 C 0,0 C 70 % 0 cb 1016,5 hPa 0,0 l/m 10,3 km/h (2 Bft) N 355 0 min 0,000 mm 0 W/m 1,1 C 4,0 C 10,3 km/h (2 Bft) 0,00 %
29.03.2014 02:20 6,1 C 0,0 C 0,0 C 70 % 0 cb 1016,5 hPa 0,0 l/m 11,2 km/h (2 Bft) N 0 0 min 0,000 mm 0 W/m 1,0 C 3,7 C 11,2 km/h (2 Bft) 0,00 %
29.03.2014 02:25 6,1 C 0,0 C 0,0 C 70 % 0 cb 1016,5 hPa 0,0 l/m 10,0 km/h (2 Bft) N 350 0 min 0,000 mm 0 W/m 1,0 C 4,0 C 10,0 km/h (2 Bft) 0,00 %
29.03.2014 02:30 6,1 C 0,0 C 0,0 C 70 % 0 cb 1016,5 hPa 0,0 l/m 6,7 km/h (2 Bft) NW 305 0 min 0,000 mm 0 W/m 1,0 C 4,8 C 6,7 km/h (2 Bft) 0,00 %
29.03.2014 02:35 6,1 C 0,0 C 0,0 C 70 % 0 cb 1016,5 hPa 0,0 l/m 11,8 km/h (2 Bft) N 355 0 min 0,000 mm 0 W/m 1,0 C 3,6 C 11,8 km/h (2 Bft) 0,00 %
29.03.2014 02:40 6,0 C 0,0 C 0,0 C 70 % 0 cb 1016,5 hPa 0,0 l/m 7,3 km/h (2 Bft) N 0 0 min 0,000 mm 0 W/m 1,0 C 4,5 C 7,3 km/h (2 Bft) 0,00 %
29.03.2014 02:45 6,0 C 0,0 C 0,0 C 70 % 0 cb 1016,5 hPa 0,0 l/m 9,1 km/h (2 Bft) W-SW 250 0 min 0,000 mm 0 W/m 1,0 C 4,0 C 9,1 km/h (2 Bft) 0,00 %
29.03.2014 02:50 5,9 C 0,0 C 0,0 C 70 % 0 cb 1017,5 hPa 0,0 l/m 7,9 km/h (2 Bft) N-NW 330 0 min 0,000 mm 0 W/m 0,9 C 4,2 C 7,9 km/h (2 Bft) 0,00 %
29.03.2014 02:55 5,8 C 0,0 C 0,0 C 71 % 0 cb 1017,5 hPa 0,0 l/m 6,4 km/h (2 Bft) N-NO 30 0 min 0,000 mm 0 W/m 1,0 C 4,5 C 6,4 km/h (2 Bft) 0,00 %
29.03.2014 03:00 5,9 C 0,0 C 0,0 C 71 % 0 cb 1017,5 hPa 0,0 l/m 12,1 km/h (2 Bft) NW 320 0 min 0,000 mm 0 W/m 1,1 C 3,3 C 12,1 km/h (2 Bft) 0,00 %
29.03.2014 03:05 5,8 C 0,0 C 0,0 C 71 % 0 cb 1017,5 hPa 0,0 l/m 10,0 km/h (2 Bft) N 5 0 min 0,000 mm 0 W/m 1,0 C 3,6 C 10,0 km/h (2 Bft) 0,00 %
29.03.2014 03:10 5,8 C 0,0 C 0,0 C 71 % 0 cb 1017,5 hPa 0,0 l/m 7,0 km/h (2 Bft) N-NO 20 0 min 0,000 mm 0 W/m 1,0 C 4,3 C 7,0 km/h (2 Bft) 0,00 %
29.03.2014 03:15 5,7 C 0,0 C 0,0 C 72 % 0 cb 1017,5 hPa 0,0 l/m 8,2 km/h (2 Bft) N-NO 15 0 min 0,000 mm 0 W/m 1,1 C 3,9 C 8,2 km/h (2 Bft) 0,00 %
29.03.2014 03:20 5,8 C 0,0 C 0,0 C 71 % 0 cb 1017,5 hPa 0,0 l/m 10,6 km/h (2 Bft) N-NW 335 0 min 0,000 mm 0 W/m 1,0 C 3,5 C 10,6 km/h (2 Bft) 0,00 %
29.03.2014 03:25 5,6 C 0,0 C 0,0 C 72 % 0 cb 1017,5 hPa 0,0 l/m 8,2 km/h (2 Bft) N-NW 345 0 min 0,000 mm 0 W/m 1,0 C 3,8 C 8,2 km/h (2 Bft) 0,00 %
29.03.2014 03:30 5,7 C 0,0 C 0,0 C 72 % 0 cb 1017,5 hPa 0,0 l/m 11,5 km/h (2 Bft) W 265 0 min 0,000 mm 0 W/m 1,1 C 3,2 C 11,5 km/h (2 Bft) 0,00 %
29.03.2014 03:35 5,7 C 0,0 C 0,0 C 72 % 0 cb 1017,5 hPa 0,0 l/m 6,7 km/h (2 Bft) W 275 0 min 0,000 mm 0 W/m 1,1 C 4,3 C 6,7 km/h (2 Bft) 0,00 %
29.03.2014 03:40 5,7 C 0,0 C 0,0 C 72 % 0 cb 1017,5 hPa 0,0 l/m 8,8 km/h (2 Bft) S 190 0 min 0,000 mm 0 W/m 1,1 C 3,8 C 8,8 km/h (2 Bft) 0,00 %
29.03.2014 03:45 5,6 C 0,0 C 0,0 C 72 % 0 cb 1017,5 hPa 0,0 l/m 10,0 km/h (2 Bft) N-NO 15 0 min 0,000 mm 0 W/m 1,0 C 3,4 C 10,0 km/h (2 Bft) 0,00 %
29.03.2014 03:50 5,6 C 0,0 C 0,0 C 72 % 0 cb 1016,5 hPa 0,0 l/m 8,8 km/h (2 Bft) W 260 0 min 0,000 mm 0 W/m 1,0 C 3,6 C 8,8 km/h (2 Bft) 0,00 %
29.03.2014 03:55 5,5 C 0,0 C 0,0 C 72 % 0 cb 1016,5 hPa 0,0 l/m 8,8 km/h (2 Bft) W 280 0 min 0,000 mm 0 W/m 0,9 C 3,5 C 8,8 km/h (2 Bft) 0,00 %
29.03.2014 04:00 5,4 C 0,0 C 0,0 C 72 % 0 cb 1016,5 hPa 0,0 l/m 8,2 km/h (2 Bft) N 5 0 min 0,000 mm 0 W/m 0,8 C 3,6 C 8,2 km/h (2 Bft) 0,00 %
29.03.2014 04:05 5,3 C 0,0 C 0,0 C 73 % 0 cb 1017,5 hPa 0,0 l/m 10,3 km/h (2 Bft) N-NW 335 0 min 0,000 mm 0 W/m 0,9 C 3,0 C 10,3 km/h (2 Bft) 0,00 %
29.03.2014 04:10 5,4 C 0,0 C 0,0 C 73 % 0 cb 1017,5 hPa 0,0 l/m 8,5 km/h (2 Bft) N 350 0 min 0,000 mm 0 W/m 1,0 C 3,5 C 8,5 km/h (2 Bft) 0,00 %
29.03.2014 04:15 5,4 C 0,0 C 0,0 C 73 % 0 cb 1017,5 hPa 0,0 l/m 9,1 km/h (2 Bft) O 100 0 min 0,000 mm 0 W/m 1,0 C 3,3 C 9,1 km/h (2 Bft) 0,00 %
29.03.2014 04:20 5,3 C 0,0 C 0,0 C 73 % 0 cb 1016,5 hPa 0,0 l/m 11,5 km/h (2 Bft) N-NW 340 0 min 0,000 mm 0 W/m 0,9 C 2,7 C 11,5 km/h (2 Bft) 0,00 %
29.03.2014 04:25 5,3 C 0,0 C 0,0 C 73 % 0 cb 1016,5 hPa 0,0 l/m 9,1 km/h (2 Bft) NW 325 0 min 0,000 mm 0 W/m 0,9 C 3,2 C 9,1 km/h (2 Bft) 0,00 %
29.03.2014 04:30 5,4 C 0,0 C 0,0 C 73 % 0 cb 1016,5 hPa 0,0 l/m 10,0 km/h (2 Bft) W 270 0 min 0,000 mm 0 W/m 1,0 C 3,1 C 10,0 km/h (2 Bft) 0,00 %
29.03.2014 04:35 5,3 C 0,0 C 0,0 C 73 % 0 cb 1017,5 hPa 0,0 l/m 7,6 km/h (2 Bft) NW 325 0 min 0,000 mm 0 W/m 0,9 C 3,6 C 7,6 km/h (2 Bft) 0,00 %
29.03.2014 04:40 5,3 C 0,0 C 0,0 C 73 % 0 cb 1017,5 hPa 0,0 l/m 9,7 km/h (2 Bft) N 10 0 min 0,000 mm 0 W/m 0,9 C 3,1 C 9,7 km/h (2 Bft) 0,00 %
29.03.2014 04:45 5,3 C 0,0 C 0,0 C 73 % 0 cb 1017,5 hPa 0,0 l/m 8,8 km/h (2 Bft) N-NO 15 0 min 0,000 mm 0 W/m 0,9 C 3,3 C 8,8 km/h (2 Bft) 0,00 %
29.03.2014 04:50 5,3 C 0,0 C 0,0 C 73 % 0 cb 1017,5 hPa 0,0 l/m 9,7 km/h (2 Bft) N-NW 340 0 min 0,000 mm 0 W/m 0,9 C 3,1 C 9,7 km/h (2 Bft) 0,00 %
29.03.2014 04:55 5,4 C 0,0 C 0,0 C 73 % 0 cb 1017,5 hPa 0,0 l/m 10,3 km/h (2 Bft) N-NW 330 0 min 0,000 mm 0 W/m 1,0 C 3,1 C 10,3 km/h (2 Bft) 0,00 %
29.03.2014 05:00 5,3 C 0,0 C 0,0 C 73 % 0 cb 1017,5 hPa 0,0 l/m 7,9 km/h (2 Bft) NW 315 0 min 0,000 mm 0 W/m 0,9 C 3,5 C 7,9 km/h (2 Bft) 0,00 %
29.03.2014 05:05 5,3 C 0,0 C 0,0 C 73 % 0 cb 1016,5 hPa 0,0 l/m 7,6 km/h (2 Bft) N-NW 330 0 min 0,000 mm 0 W/m 0,9 C 3,6 C 7,6 km/h (2 Bft) 0,00 %
29.03.2014 05:10 5,3 C 0,0 C 0,0 C 73 % 0 cb 1016,5 hPa 0,0 l/m 8,8 km/h (2 Bft) W-NW 290 0 min 0,000 mm 0 W/m 0,9 C 3,3 C 8,8 km/h (2 Bft) 0,00 %
29.03.2014 05:15 5,3 C 0,0 C 0,0 C 73 % 0 cb 1016,5 hPa 0,0 l/m 10,0 km/h (2 Bft) N 0 0 min 0,000 mm 0 W/m 0,9 C 3,0 C 10,0 km/h (2 Bft) 0,00 %
29.03.2014 05:20 5,2 C 0,0 C 0,0 C 73 % 0 cb 1016,5 hPa 0,0 l/m 7,9 km/h (2 Bft) NW 315 0 min 0,000 mm 0 W/m 0,8 C 3,4 C 7,9 km/h (2 Bft) 0,00 %
29.03.2014 05:25 5,1 C 0,0 C 0,0 C 74 % 0 cb 1016,5 hPa 0,0 l/m 11,5 km/h (2 Bft) NO 35 0 min 0,000 mm 0 W/m 0,9 C 2,5 C 11,5 km/h (2 Bft) 0,00 %
29.03.2014 05:30 5,0 C 0,0 C 0,0 C 74 % 0 cb 1016,5 hPa 0,0 l/m 12,1 km/h (2 Bft) NW 320 0 min 0,000 mm 0 W/m 0,8 C 2,2 C 12,1 km/h (2 Bft) 0,00 %
29.03.2014 05:35 4,9 C 0,0 C 0,0 C 74 % 0 cb 1017,5 hPa 0,0 l/m 10,0 km/h (2 Bft) N-NW 330 0 min 0,000 mm 0 W/m 0,7 C 2,5 C 10,0 km/h (2 Bft) 0,00 %
29.03.2014 05:40 4,9 C 0,0 C 0,0 C 74 % 0 cb 1017,5 hPa 0,0 l/m 6,4 km/h (2 Bft) O 80 0 min 0,000 mm 0 W/m 0,7 C 3,5 C 6,4 km/h (2 Bft) 0,00 %
29.03.2014 05:45 4,7 C 0,0 C 0,0 C 74 % 0 cb 1017,5 hPa 0,0 l/m 9,1 km/h (2 Bft) W-NW 300 0 min 0,000 mm 0 W/m 0,5 C 2,5 C 9,1 km/h (2 Bft) 0,00 %
29.03.2014 05:50 4,8 C 0,0 C 0,0 C 74 % 0 cb 1016,5 hPa 0,0 l/m 9,7 km/h (2 Bft) NW 315 0 min 0,000 mm 0 W/m 0,6 C 2,5 C 9,7 km/h (2 Bft) 0,00 %
29.03.2014 05:55 4,7 C 0,0 C 0,0 C 75 % 0 cb 1016,5 hPa 0,0 l/m 8,2 km/h (2 Bft) N-NW 340 0 min 0,000 mm 0 W/m 0,7 C 2,7 C 8,2 km/h (2 Bft) 0,00 %
29.03.2014 06:00 4,7 C 0,0 C 0,0 C 75 % 0 cb 1016,5 hPa 0,0 l/m 8,5 km/h (2 Bft) N 10 0 min 0,000 mm 0 W/m 0,7 C 2,7 C 8,5 km/h (2 Bft) 0,00 %
29.03.2014 06:05 4,7 C 0,0 C 0,0 C 75 % 0 cb 1017,5 hPa 0,0 l/m 8,5 km/h (2 Bft) N-NW 330 0 min 0,000 mm 0 W/m 0,7 C 2,7 C 8,5 km/h (2 Bft) 0,00 %
29.03.2014 06:10 4,7 C 0,0 C 0,0 C 75 % 0 cb 1017,5 hPa 0,0 l/m 7,9 km/h (2 Bft) N-NO 20 0 min 0,000 mm 0 W/m 0,7 C 2,8 C 7,9 km/h (2 Bft) 0,00 %
29.03.2014 06:15 4,8 C 0,0 C 0,0 C 75 % 0 cb 1017,5 hPa 0,0 l/m 5,7 km/h (1 Bft) NW 325 0 min 0,000 mm 0 W/m 0,8 C 3,6 C 5,7 km/h (1 Bft) 0,00 %
29.03.2014 06:20 4,8 C 0,0 C 0,0 C 75 % 0 cb 1017,5 hPa 0,0 l/m 6,7 km/h (2 Bft) N-NO 30 0 min 0,000 mm 0 W/m 0,8 C 3,3 C 6,7 km/h (2 Bft) 0,00 %
29.03.2014 06:25 4,9 C 0,0 C 0,0 C 75 % 0 cb 1017,5 hPa 0,0 l/m 7,3 km/h (2 Bft) N 350 0 min 0,000 mm 0 W/m 0,8 C 3,2 C 7,3 km/h (2 Bft) 0,00 %
29.03.2014 06:30 4,8 C 0,0 C 0,0 C 75 % 0 cb 1017,5 hPa 0,0 l/m 10,6 km/h (2 Bft) N 0 0 min 0,000 mm 0 W/m 0,8 C 2,3 C 10,6 km/h (2 Bft) 0,00 %
29.03.2014 06:35 4,8 C 0,0 C 0,0 C 75 % 0 cb 1017,5 hPa 0,0 l/m 7,9 km/h (2 Bft) NW 305 0 min 0,000 mm 0 W/m 0,8 C 2,9 C 7,9 km/h (2 Bft) 0,00 %
29.03.2014 06:40 4,8 C 0,0 C 0,0 C 75 % 0 cb 1017,5 hPa 0,0 l/m 7,0 km/h (2 Bft) W 280 0 min 0,000 mm 0 W/m 0,8 C 3,2 C 7,0 km/h (2 Bft) 0,00 %
29.03.2014 06:45 4,8 C 0,0 C 0,0 C 75 % 0 cb 1017,5 hPa 0,0 l/m 6,4 km/h (2 Bft) N-NO 25 0 min 0,000 mm 0 W/m 0,8 C 3,4 C 6,4 km/h (2 Bft) 0,00 %
29.03.2014 06:50 4,9 C 0,0 C 0,0 C 75 % 0 cb 1017,5 hPa 0,0 l/m 10,3 km/h (2 Bft) N 350 0 min 0,000 mm 0 W/m 0,8 C 2,5 C 10,3 km/h (2 Bft) 0,00 %
29.03.2014 06:55 4,9 C 0,0 C 0,0 C 75 % 0 cb 1017,5 hPa 0,0 l/m 7,6 km/h (2 Bft) O 90 0 min 0,000 mm 0 W/m 0,8 C 3,1 C 7,6 km/h (2 Bft) 0,00 %
29.03.2014 07:00 4,9 C 0,0 C 0,0 C 75 % 0 cb 1017,5 hPa 0,0 l/m 11,2 km/h (2 Bft) NW 325 0 min 0,000 mm 0 W/m 0,8 C 2,3 C 11,2 km/h (2 Bft) 0,00 %
29.03.2014 07:05 4,9 C 0,0 C 0,0 C 75 % 0 cb 1017,5 hPa 0,0 l/m 7,6 km/h (2 Bft) N-NW 335 0 min 0,000 mm 0 W/m 0,8 C 3,1 C 7,6 km/h (2 Bft) 0,00 %
29.03.2014 07:10 5,1 C 0,0 C 0,0 C 74 % 0 cb 1017,5 hPa 0,0 l/m 7,9 km/h (2 Bft) N-NW 335 0 min 0,000 mm 0 W/m 0,9 C 3,3 C 7,9 km/h (2 Bft) 0,00 %
29.03.2014 07:15 5,1 C 0,0 C 0,0 C 74 % 0 cb 1017,5 hPa 0,0 l/m 11,5 km/h (2 Bft) N-NW 345 0 min 0,000 mm 0 W/m 0,9 C 2,5 C 11,5 km/h (2 Bft) 0,00 %
29.03.2014 07:20 5,3 C 0,0 C 0,0 C 74 % 0 cb 1017,5 hPa 0,0 l/m 8,8 km/h (2 Bft) NW 325 0 min 0,000 mm 0 W/m 1,0 C 3,3 C 8,8 km/h (2 Bft) 0,00 %
29.03.2014 07:25 5,4 C 0,0 C 0,0 C 74 % 0 cb 1017,5 hPa 0,0 l/m 9,1 km/h (2 Bft) N 355 0 min 0,000 mm 0 W/m 1,1 C 3,3 C 9,1 km/h (2 Bft) 0,00 %
29.03.2014 07:30 5,6 C 0,0 C 0,0 C 74 % 0 cb 1017,5 hPa 0,0 l/m 12,1 km/h (2 Bft) NW 310 0 min 0,000 mm 0 W/m 1,3 C 3,0 C 12,1 km/h (2 Bft) 0,00 %
29.03.2014 07:35 5,8 C 0,0 C 0,0 C 73 % 0 cb 1017,5 hPa 0,0 l/m 9,4 km/h (2 Bft) N 355 0 min 0,000 mm 0 W/m 1,3 C 3,7 C 9,4 km/h (2 Bft) 0,00 %
29.03.2014 07:40 6,1 C 0,0 C 0,0 C 73 % 0 cb 1017,5 hPa 0,0 l/m 8,2 km/h (2 Bft) N-NW 345 0 min 0,000 mm 0 W/m 1,6 C 4,4 C 8,2 km/h (2 Bft) 0,00 %
29.03.2014 07:45 6,3 C 0,0 C 0,0 C 72 % 0 cb 1017,5 hPa 0,0 l/m 10,0 km/h (2 Bft) N-NO 20 0 min 0,000 mm 0 W/m 1,6 C 4,2 C 10,0 km/h (2 Bft) 0,00 %
29.03.2014 07:50 6,4 C 0,0 C 0,0 C 72 % 0 cb 1017,5 hPa 0,0 l/m 11,5 km/h (2 Bft) SW 235 0 min 0,000 mm 0 W/m 1,7 C 4,0 C 11,5 km/h (2 Bft) 0,00 %
29.03.2014 07:55 6,6 C 0,0 C 0,0 C 71 % 6 cb 1017,5 hPa 0,0 l/m 9,1 km/h (2 Bft) N-NO 30 0 min 0,000 mm 0 W/m 1,7 C 4,8 C 9,1 km/h (2 Bft) 0,00 %
29.03.2014 08:00 6,8 C 0,0 C 0,0 C 71 % 5 cb 1017,5 hPa 0,0 l/m 9,7 km/h (2 Bft) NO 35 0 min 0,000 mm 0 W/m 1,9 C 4,9 C 9,7 km/h (2 Bft) 0,00 %
29.03.2014 08:05 7,0 C 0,0 C 0,0 C 71 % 5 cb 1017,5 hPa 0,0 l/m 8,8 km/h (2 Bft) O 90 0 min 0,000 mm 0 W/m 2,1 C 5,3 C 8,8 km/h (2 Bft) 0,00 %
29.03.2014 08:10 7,3 C 0,0 C 0,0 C 70 % 5 cb 1017,5 hPa 0,0 l/m 10,0 km/h (2 Bft) O-NO 70 0 min 0,000 mm 0 W/m 2,2 C 5,4 C 10,0 km/h (2 Bft) 0,00 %
29.03.2014 08:15 7,6 C 0,0 C 0,0 C 70 % 5 cb 1017,5 hPa 0,0 l/m 10,6 km/h (2 Bft) N-NW 330 0 min 0,000 mm 0 W/m 2,5 C 5,7 C 10,6 km/h (2 Bft) 0,00 %
29.03.2014 08:20 7,7 C 0,0 C 0,0 C 69 % 5 cb 1017,5 hPa 0,0 l/m 10,9 km/h (2 Bft) NW 325 0 min 0,000 mm 0 W/m 2,4 C 5,7 C 10,9 km/h (2 Bft) 0,00 %
29.03.2014 08:25 7,9 C 0,0 C 0,0 C 69 % 5 cb 1017,5 hPa 0,0 l/m 11,2 km/h (2 Bft) W-NW 300 0 min 0,000 mm 0 W/m 2,6 C 5,9 C 11,2 km/h (2 Bft) 0,00 %
29.03.2014 08:30 8,2 C 0,0 C 0,0 C 68 % 5 cb 1017,5 hPa 0,0 l/m 7,6 km/h (2 Bft) N-NW 345 0 min 0,000 mm 0 W/m 2,7 C 7,0 C 7,6 km/h (2 Bft) 0,00 %
29.03.2014 08:35 8,4 C 0,0 C 0,0 C 68 % 5 cb 1017,5 hPa 0,0 l/m 10,9 km/h (2 Bft) NW 315 0 min 0,000 mm 0 W/m 2,8 C 6,6 C 10,9 km/h (2 Bft) 0,00 %
29.03.2014 08:40 8,6 C 0,0 C 0,0 C 68 % 5 cb 1017,5 hPa 0,0 l/m 8,2 km/h (2 Bft) N-NO 20 0 min 0,000 mm 0 W/m 3,0 C 7,3 C 8,2 km/h (2 Bft) 0,00 %
29.03.2014 08:45 8,5 C 0,0 C 0,0 C 67 % 5 cb 1017,5 hPa 0,0 l/m 12,1 km/h (2 Bft) N-NO 15 0 min 0,000 mm 0 W/m 2,7 C 6,5 C 12,1 km/h (2 Bft) 0,00 %
29.03.2014 08:50 8,5 C 0,0 C 0,0 C 67 % 5 cb 1017,5 hPa 0,0 l/m 11,5 km/h (2 Bft) N-NO 15 0 min 0,000 mm 0 W/m 2,7 C 6,6 C 11,5 km/h (2 Bft) 0,00 %
29.03.2014 08:55 9,0 C 0,0 C 0,0 C 66 % 5 cb 1017,5 hPa 0,0 l/m 8,5 km/h (2 Bft) NO 35 0 min 0,000 mm 0 W/m 3,0 C 7,7 C 8,5 km/h (2 Bft) 0,00 %
29.03.2014 09:00 9,2 C 0,0 C 0,0 C 66 % 5 cb 1017,5 hPa 0,0 l/m 8,5 km/h (2 Bft) NW 320 0 min 0,000 mm 0 W/m 3,2 C 8,0 C 8,5 km/h (2 Bft) 0,00 %
29.03.2014 09:05 9,5 C 0,0 C 0,0 C 65 % 5 cb 1018,5 hPa 0,0 l/m 9,7 km/h (2 Bft) W-NW 300 0 min 0,000 mm 0 W/m 3,3 C 8,1 C 9,7 km/h (2 Bft) 0,00 %
29.03.2014 09:10 9,6 C 0,0 C 0,0 C 65 % 5 cb 1018,5 hPa 0,0 l/m 12,1 km/h (2 Bft) N-NW 345 0 min 0,000 mm 0 W/m 3,4 C 7,8 C 12,1 km/h (2 Bft) 0,00 %
29.03.2014 09:15 9,8 C 0,0 C 0,0 C 65 % 6 cb 1018,5 hPa 0,0 l/m 12,7 km/h (3 Bft) N 350 0 min 0,000 mm 0 W/m 3,5 C 8,0 C 12,7 km/h (3 Bft) 0,00 %
29.03.2014 09:20 10,0 C 0,0 C 0,0 C 65 % 5 cb 1017,5 hPa 0,0 l/m 8,5 km/h (2 Bft) N 10 0 min 0,000 mm 0 W/m 3,7 C 8,9 C 8,5 km/h (2 Bft) 0,00 %
29.03.2014 09:25 10,2 C 0,0 C 0,0 C 64 % 5 cb 1017,5 hPa 0,0 l/m 7,9 km/h (2 Bft) N 355 0 min 0,000 mm 0 W/m 3,7 C 10,2 C 7,9 km/h (2 Bft) 0,00 %
29.03.2014 09:30 10,5 C 0,0 C 0,0 C 64 % 5 cb 1017,5 hPa 0,0 l/m 9,7 km/h (2 Bft) N-NO 15 0 min 0,000 mm 0 W/m 4,0 C 10,5 C 9,7 km/h (2 Bft) 0,00 %
29.03.2014 09:35 10,7 C 0,0 C 0,0 C 63 % 5 cb 1017,5 hPa 0,0 l/m 7,9 km/h (2 Bft) O 85 0 min 0,000 mm 0 W/m 3,9 C 10,7 C 7,9 km/h (2 Bft) 0,00 %
29.03.2014 09:40 10,8 C 0,0 C 0,0 C 63 % 3 cb 1017,5 hPa 0,0 l/m 8,2 km/h (2 Bft) N-NO 15 0 min 0,000 mm 0 W/m 4,0 C 10,8 C 8,2 km/h (2 Bft) 0,00 %
29.03.2014 09:45 11,4 C 0,0 C 0,0 C 62 % 7 cb 1017,5 hPa 0,0 l/m 6,4 km/h (2 Bft) N-NW 345 0 min 0,000 mm 0 W/m 4,4 C 11,4 C 6,4 km/h (2 Bft) 0,00 %
29.03.2014 09:50 11,5 C 0,0 C 0,0 C 62 % 2 cb 1017,5 hPa 0,0 l/m 7,6 km/h (2 Bft) NO 45 0 min 0,000 mm 0 W/m 4,5 C 11,5 C 7,6 km/h (2 Bft) 0,00 %
29.03.2014 09:55 11,9 C 0,0 C 0,0 C 61 % 8 cb 1017,5 hPa 0,0 l/m 9,1 km/h (2 Bft) O-SO 120 0 min 0,000 mm 0 W/m 4,6 C 11,9 C 9,1 km/h (2 Bft) 0,00 %
29.03.2014 10:00 12,0 C 0,0 C 0,0 C 61 % 3 cb 1017,5 hPa 0,0 l/m 9,1 km/h (2 Bft) N-NO 15 0 min 0,000 mm 0 W/m 4,7 C 12,0 C 9,1 km/h (2 Bft) 0,00 %
29.03.2014 10:05 12,4 C 0,0 C 0,0 C 60 % 5 cb 1018,5 hPa 0,0 l/m 8,2 km/h (2 Bft) W-NW 285 0 min 0,000 mm 0 W/m 4,9 C 12,4 C 8,2 km/h (2 Bft) 0,00 %
29.03.2014 10:10 12,5 C 0,0 C 0,0 C 60 % 4 cb 1018,5 hPa 0,0 l/m 7,3 km/h (2 Bft) O 85 0 min 0,000 mm 0 W/m 5,0 C 12,5 C 7,3 km/h (2 Bft) 0,00 %
29.03.2014 10:15 12,8 C 0,0 C 0,0 C 59 % 6 cb 1018,5 hPa 0,0 l/m 6,1 km/h (2 Bft) N-NO 30 0 min 0,000 mm 0 W/m 5,0 C 12,8 C 6,1 km/h (2 Bft) 0,00 %
29.03.2014 10:20 13,6 C 0,0 C 0,0 C 57 % 4 cb 1017,5 hPa 0,0 l/m 9,1 km/h (2 Bft) N 10 0 min 0,000 mm 0 W/m 5,2 C 13,6 C 9,1 km/h (2 Bft) 0,00 %
29.03.2014 10:25 14,6 C 0,0 C 0,0 C 56 % 6 cb 1017,5 hPa 0,0 l/m 6,7 km/h (2 Bft) S-SO 150 0 min 0,000 mm 0 W/m 5,9 C 14,6 C 6,7 km/h (2 Bft) 0,00 %
29.03.2014 10:30 14,6 C 0,0 C 0,0 C 53 % 5 cb 1017,5 hPa 0,0 l/m 8,5 km/h (2 Bft) O-SO 110 0 min 0,000 mm 0 W/m 5,1 C 14,6 C 8,5 km/h (2 Bft) 0,00 %
29.03.2014 10:35 15,4 C 0,0 C 0,0 C 51 % 5 cb 1017,5 hPa 0,0 l/m 9,1 km/h (2 Bft) O 90 0 min 0,000 mm 0 W/m 5,3 C 15,4 C 9,1 km/h (2 Bft) 0,00 %
29.03.2014 10:40 15,2 C 0,0 C 0,0 C 51 % 5 cb 1017,5 hPa 0,0 l/m 7,0 km/h (2 Bft) O-NO 65 0 min 0,000 mm 0 W/m 5,1 C 15,2 C 7,0 km/h (2 Bft) 0,00 %
29.03.2014 10:45 15,4 C 0,0 C 0,0 C 51 % 5 cb 1017,5 hPa 0,0 l/m 7,0 km/h (2 Bft) O-SO 105 0 min 0,000 mm 0 W/m 5,3 C 15,4 C 7,0 km/h (2 Bft) 0,00 %
29.03.2014 10:50 15,2 C 0,0 C 0,0 C 50 % 5 cb 1017,5 hPa 0,0 l/m 6,4 km/h (2 Bft) NO 55 0 min 0,000 mm 0 W/m 4,8 C 15,2 C 6,4 km/h (2 Bft) 0,00 %
29.03.2014 10:55 15,1 C 0,0 C 0,0 C 50 % 6 cb 1017,5 hPa 0,0 l/m 9,1 km/h (2 Bft) NO 50 0 min 0,000 mm 0 W/m 4,8 C 15,1 C 9,1 km/h (2 Bft) 0,00 %
29.03.2014 11:00 15,0 C 0,0 C 0,0 C 50 % 5 cb 1017,5 hPa 0,0 l/m 10,6 km/h (2 Bft) SO 130 0 min 0,000 mm 0 W/m 4,7 C 15,0 C 10,6 km/h (2 Bft) 0,00 %
29.03.2014 11:05 15,4 C 0,0 C 0,0 C 50 % 4 cb 1017,5 hPa 0,0 l/m 8,8 km/h (2 Bft) SO 125 0 min 0,000 mm 0 W/m 5,0 C 15,4 C 8,8 km/h (2 Bft) 0,00 %
29.03.2014 11:10 15,1 C 0,0 C 0,0 C 50 % 6 cb 1017,5 hPa 0,0 l/m 16,0 km/h (3 Bft) NO 55 0 min 0,000 mm 0 W/m 4,8 C 15,1 C 16,0 km/h (3 Bft) 0,00 %
29.03.2014 11:15 15,5 C 0,0 C 0,0 C 50 % 5 cb 1017,5 hPa 0,0 l/m 8,8 km/h (2 Bft) S 185 0 min 0,000 mm 0 W/m 5,1 C 15,5 C 8,8 km/h (2 Bft) 0,00 %
29.03.2014 11:20 15,6 C 0,0 C 0,0 C 50 % 5 cb 1017,5 hPa 0,0 l/m 8,5 km/h (2 Bft) O-NO 65 0 min 0,000 mm 0 W/m 5,2 C 15,6 C 8,5 km/h (2 Bft) 0,00 %
29.03.2014 11:25 15,7 C 0,0 C 0,0 C 50 % 5 cb 1017,5 hPa 0,0 l/m 11,8 km/h (2 Bft) S-SO 165 0 min 0,000 mm 0 W/m 5,3 C 15,7 C 11,8 km/h (2 Bft) 0,00 %
29.03.2014 11:30 15,7 C 0,0 C 0,0 C 49 % 5 cb 1017,5 hPa 0,0 l/m 12,1 km/h (2 Bft) O-NO 60 0 min 0,000 mm 0 W/m 5,0 C 15,7 C 12,1 km/h (2 Bft) 0,00 %
29.03.2014 11:35 15,6 C 0,0 C 0,0 C 49 % 5 cb 1017,5 hPa 0,0 l/m 12,7 km/h (3 Bft) O 95 0 min 0,000 mm 0 W/m 4,9 C 15,6 C 12,7 km/h (3 Bft) 0,00 %
29.03.2014 11:40 16,2 C 0,0 C 0,0 C 49 % 5 cb 1017,5 hPa 0,0 l/m 9,4 km/h (2 Bft) O 90 0 min 0,000 mm 0 W/m 5,5 C 16,2 C 9,4 km/h (2 Bft) 0,00 %
29.03.2014 11:45 16,4 C 0,0 C 0,0 C 49 % 5 cb 1017,5 hPa 0,0 l/m 3,9 km/h (1 Bft) N-NW 345 0 min 0,000 mm 0 W/m 5,7 C 16,4 C 3,9 km/h (1 Bft) 0,00 %
29.03.2014 11:50 16,6 C 0,0 C 0,0 C 48 % 5 cb 1017,5 hPa 0,0 l/m 6,4 km/h (2 Bft) NW 320 0 min 0,000 mm 0 W/m 5,5 C 16,6 C 6,4 km/h (2 Bft) 0,00 %
29.03.2014 11:55 16,5 C 0,0 C 0,0 C 47 % 5 cb 1017,5 hPa 0,0 l/m 10,3 km/h (2 Bft) O-NO 70 0 min 0,000 mm 0 W/m 5,2 C 16,5 C 10,3 km/h (2 Bft) 0,00 %
29.03.2014 12:00 16,6 C 0,0 C 0,0 C 46 % 4 cb 1017,5 hPa 0,0 l/m 9,1 km/h (2 Bft) SO 135 0 min 0,000 mm 0 W/m 4,9 C 16,6 C 9,1 km/h (2 Bft) 0,00 %
29.03.2014 12:05 16,6 C 0,0 C 0,0 C 46 % 6 cb 1017,5 hPa 0,0 l/m 12,1 km/h (2 Bft) O 90 0 min 0,000 mm 0 W/m 4,9 C 16,6 C 12,1 km/h (2 Bft) 0,00 %
29.03.2014 12:10 16,7 C 0,0 C 0,0 C 46 % 6 cb 1017,5 hPa 0,0 l/m 10,3 km/h (2 Bft) S 175 0 min 0,000 mm 0 W/m 5,0 C 16,7 C 10,3 km/h (2 Bft) 0,00 %
29.03.2014 12:15 17,2 C 0,0 C 0,0 C 45 % 5 cb 1017,5 hPa 0,0 l/m 8,5 km/h (2 Bft) S 170 0 min 0,000 mm 0 W/m 5,2 C 17,2 C 8,5 km/h (2 Bft) 0,00 %
29.03.2014 12:20 17,1 C 0,0 C 0,0 C 45 % 5 cb 1017,5 hPa 0,0 l/m 9,7 km/h (2 Bft) O-NO 70 0 min 0,000 mm 0 W/m 5,1 C 17,1 C 9,7 km/h (2 Bft) 0,00 %
29.03.2014 12:25 17,0 C 0,0 C 0,0 C 45 % 5 cb 1017,5 hPa 0,0 l/m 10,3 km/h (2 Bft) NO 50 0 min 0,000 mm 0 W/m 5,0 C 17,0 C 10,3 km/h (2 Bft) 0,00 %
29.03.2014 12:30 17,4 C 0,0 C 0,0 C 44 % 5 cb 1017,5 hPa 0,0 l/m 11,8 km/h (2 Bft) O-NO 65 0 min 0,000 mm 0 W/m 5,0 C 17,4 C 11,8 km/h (2 Bft) 0,00 %
29.03.2014 12:35 17,3 C 0,0 C 0,0 C 45 % 6 cb 1017,5 hPa 0,0 l/m 13,3 km/h (3 Bft) SO 135 0 min 0,000 mm 0 W/m 5,3 C 17,3 C 13,3 km/h (3 Bft) 0,00 %
29.03.2014 12:40 17,5 C 0,0 C 0,0 C 45 % 2 cb 1017,5 hPa 0,0 l/m 9,4 km/h (2 Bft) O 95 0 min 0,000 mm 0 W/m 5,4 C 17,5 C 9,4 km/h (2 Bft) 0,00 %
29.03.2014 12:45 17,6 C 0,0 C 0,0 C 44 % 7 cb 1017,5 hPa 0,0 l/m 3,6 km/h (1 Bft) W-SW 255 0 min 0,000 mm 0 W/m 5,2 C 17,6 C 3,6 km/h (1 Bft) 0,00 %
29.03.2014 12:50 17,8 C 0,0 C 0,0 C 44 % 6 cb 1017,5 hPa 0,0 l/m 7,3 km/h (2 Bft) NO 35 0 min 0,000 mm 0 W/m 5,4 C 17,8 C 7,3 km/h (2 Bft) 0,00 %
29.03.2014 12:55 18,1 C 0,0 C 0,0 C 44 % 4 cb 1017,5 hPa 0,0 l/m 7,3 km/h (2 Bft) NO 40 0 min 0,000 mm 0 W/m 5,7 C 18,1 C 7,3 km/h (2 Bft) 0,00 %
29.03.2014 13:00 17,6 C 0,0 C 0,0 C 43 % 3 cb 1017,5 hPa 0,0 l/m 13,0 km/h (3 Bft) S-SO 165 0 min 0,000 mm 0 W/m 4,9 C 17,6 C 13,0 km/h (3 Bft) 0,00 %
29.03.2014 13:05 17,9 C 0,0 C 0,0 C 44 % 8 cb 1017,5 hPa 0,0 l/m 10,6 km/h (2 Bft) SO 145 0 min 0,000 mm 0 W/m 5,5 C 17,9 C 10,6 km/h (2 Bft) 0,00 %
29.03.2014 13:10 17,6 C 0,0 C 0,0 C 44 % 5 cb 1017,5 hPa 0,0 l/m 7,0 km/h (2 Bft) W-SW 240 0 min 0,000 mm 0 W/m 5,2 C 17,6 C 7,0 km/h (2 Bft) 0,00 %
29.03.2014 13:15 18,2 C 0,0 C 0,0 C 43 % 5 cb 1017,5 hPa 0,0 l/m 10,9 km/h (2 Bft) S 190 0 min 0,000 mm 0 W/m 5,4 C 18,2 C 10,9 km/h (2 Bft) 0,00 %
29.03.2014 13:20 18,2 C 0,0 C 0,0 C 42 % 5 cb 1016,5 hPa 0,0 l/m 10,9 km/h (2 Bft) S 170 0 min 0,000 mm 0 W/m 5,1 C 18,2 C 10,9 km/h (2 Bft) 0,00 %
29.03.2014 13:25 18,2 C 0,0 C 0,0 C 43 % 2 cb 1016,5 hPa 0,0 l/m 8,2 km/h (2 Bft) SO 135 0 min 0,000 mm 0 W/m 5,4 C 18,2 C 8,2 km/h (2 Bft) 0,00 %
29.03.2014 13:30 18,6 C 0,0 C 0,0 C 43 % 5 cb 1016,5 hPa 0,0 l/m 7,3 km/h (2 Bft) NO 50 0 min 0,000 mm 0 W/m 5,8 C 18,6 C 7,3 km/h (2 Bft) 0,00 %
29.03.2014 13:35 18,4 C 0,0 C 0,0 C 44 % 6 cb 1016,5 hPa 0,0 l/m 9,7 km/h (2 Bft) S 170 0 min 0,000 mm 0 W/m 5,9 C 18,4 C 9,7 km/h (2 Bft) 0,00 %
29.03.2014 13:40 19,0 C 0,0 C 0,0 C 41 % 5 cb 1016,5 hPa 0,0 l/m 8,2 km/h (2 Bft) O-NO 65 0 min 0,000 mm 0 W/m 5,4 C 19,0 C 8,2 km/h (2 Bft) 0,00 %
29.03.2014 13:45 18,8 C 0,0 C 0,0 C 42 % 5 cb 1016,5 hPa 0,0 l/m 11,2 km/h (2 Bft) NW 320 0 min 0,000 mm 0 W/m 5,6 C 18,8 C 11,2 km/h (2 Bft) 0,00 %
29.03.2014 13:50 18,8 C 0,0 C 0,0 C 41 % 5 cb 1016,5 hPa 0,0 l/m 6,1 km/h (2 Bft) S-SO 150 0 min 0,000 mm 0 W/m 5,3 C 18,8 C 6,1 km/h (2 Bft) 0,00 %
29.03.2014 13:55 18,4 C 0,0 C 0,0 C 42 % 5 cb 1016,5 hPa 0,0 l/m 13,9 km/h (3 Bft) W-NW 285 0 min 0,000 mm 0 W/m 5,3 C 18,4 C 13,9 km/h (3 Bft) 0,00 %
29.03.2014 14:00 18,4 C 0,0 C 0,0 C 41 % 6 cb 1016,5 hPa 0,0 l/m 14,5 km/h (3 Bft) O-NO 70 0 min 0,000 mm 0 W/m 4,9 C 18,4 C 14,5 km/h (3 Bft) 0,00 %
29.03.2014 14:05 18,5 C 0,0 C 0,0 C 41 % 4 cb 1016,5 hPa 0,0 l/m 10,9 km/h (2 Bft) O 80 0 min 0,000 mm 0 W/m 5,0 C 18,5 C 10,9 km/h (2 Bft) 0,00 %
29.03.2014 14:10 18,6 C 0,0 C 0,0 C 40 % 6 cb 1016,5 hPa 0,0 l/m 7,6 km/h (2 Bft) NO 40 0 min 0,000 mm 0 W/m 4,7 C 18,6 C 7,6 km/h (2 Bft) 0,00 %
29.03.2014 14:15 18,8 C 0,0 C 0,0 C 40 % 4 cb 1016,5 hPa 0,0 l/m 13,6 km/h (3 Bft) O 100 0 min 0,000 mm 0 W/m 4,9 C 18,8 C 13,6 km/h (3 Bft) 0,00 %
29.03.2014 14:20 19,3 C 0,0 C 0,0 C 39 % 6 cb 1016,5 hPa 0,0 l/m 8,8 km/h (2 Bft) N 10 0 min 0,000 mm 0 W/m 5,0 C 19,3 C 8,8 km/h (2 Bft) 0,00 %
29.03.2014 14:25 19,3 C 0,0 C 0,0 C 39 % 5 cb 1016,5 hPa 0,0 l/m 8,5 km/h (2 Bft) NW 315 0 min 0,000 mm 0 W/m 5,0 C 19,3 C 8,5 km/h (2 Bft) 0,00 %
29.03.2014 14:30 19,0 C 0,0 C 0,0 C 38 % 5 cb 1016,5 hPa 0,0 l/m 9,7 km/h (2 Bft) O-NO 65 0 min 0,000 mm 0 W/m 4,4 C 19,0 C 9,7 km/h (2 Bft) 0,00 %
29.03.2014 14:35 19,0 C 0,0 C 0,0 C 39 % 5 cb 1015,5 hPa 0,0 l/m 10,9 km/h (2 Bft) O-NO 60 0 min 0,000 mm 0 W/m 4,7 C 19,0 C 10,9 km/h (2 Bft) 0,00 %
29.03.2014 14:40 19,2 C 0,0 C 0,0 C 40 % 5 cb 1015,5 hPa 0,0 l/m 9,4 km/h (2 Bft) O-SO 115 0 min 0,000 mm 0 W/m 5,3 C 19,2 C 9,4 km/h (2 Bft) 0,00 %
29.03.2014 14:45 19,6 C 0,0 C 0,0 C 39 % 5 cb 1015,5 hPa 0,0 l/m 8,8 km/h (2 Bft) SO 145 0 min 0,000 mm 0 W/m 5,3 C 19,6 C 8,8 km/h (2 Bft) 0,00 %
29.03.2014 14:50 19,7 C 0,0 C 0,0 C 39 % 4 cb 1015,5 hPa 0,0 l/m 10,6 km/h (2 Bft) O 80 0 min 0,000 mm 0 W/m 5,4 C 19,7 C 10,6 km/h (2 Bft) 0,00 %
29.03.2014 14:55 19,3 C 0,0 C 0,0 C 39 % 6 cb 1015,5 hPa 0,0 l/m 10,9 km/h (2 Bft) O 80 0 min 0,000 mm 0 W/m 5,0 C 19,3 C 10,9 km/h (2 Bft) 0,00 %
29.03.2014 15:00 19,4 C 0,0 C 0,0 C 38 % 4 cb 1015,5 hPa 0,0 l/m 8,5 km/h (2 Bft) NO 40 0 min 0,000 mm 0 W/m 4,7 C 19,4 C 8,5 km/h (2 Bft) 0,00 %
29.03.2014 15:05 19,6 C 0,0 C 0,0 C 40 % 6 cb 1016,5 hPa 0,0 l/m 9,7 km/h (2 Bft) O-NO 75 0 min 0,000 mm 0 W/m 5,6 C 19,6 C 9,7 km/h (2 Bft) 0,00 %
29.03.2014 15:10 19,4 C 0,0 C 0,0 C 38 % 4 cb 1016,5 hPa 0,0 l/m 7,9 km/h (2 Bft) NW 325 0 min 0,000 mm 0 W/m 4,7 C 19,4 C 7,9 km/h (2 Bft) 0,00 %
29.03.2014 15:15 19,9 C 0,0 C 0,0 C 38 % 6 cb 1016,5 hPa 0,0 l/m 11,5 km/h (2 Bft) O-NO 75 0 min 0,000 mm 0 W/m 5,2 C 19,9 C 11,5 km/h (2 Bft) 0,00 %
29.03.2014 15:20 19,8 C 0,0 C 0,0 C 38 % 5 cb 1015,5 hPa 0,0 l/m 9,4 km/h (2 Bft) NO 35 0 min 0,000 mm 0 W/m 5,1 C 19,8 C 9,4 km/h (2 Bft) 0,00 %
29.03.2014 15:25 20,3 C 0,0 C 0,0 C 37 % 5 cb 1015,5 hPa 0,0 l/m 5,4 km/h (1 Bft) O 80 0 min 0,000 mm 0 W/m 5,1 C 20,3 C 5,4 km/h (1 Bft) 0,00 %
29.03.2014 15:30 20,3 C 0,0 C 0,0 C 38 % 5 cb 1015,5 hPa 0,0 l/m 5,4 km/h (1 Bft) O 90 0 min 0,000 mm 0 W/m 5,5 C 20,3 C 5,4 km/h (1 Bft) 0,00 %
29.03.2014 15:35 19,2 C 0,0 C 0,0 C 38 % 5 cb 1015,5 hPa 0,0 l/m 12,1 km/h (2 Bft) O-NO 70 0 min 0,000 mm 0 W/m 4,5 C 19,2 C 12,1 km/h (2 Bft) 0,00 %
29.03.2014 15:40 19,4 C 0,0 C 0,0 C 37 % 6 cb 1015,5 hPa 0,0 l/m 6,7 km/h (2 Bft) S-SW 200 0 min 0,000 mm 0 W/m 4,3 C 19,4 C 6,7 km/h (2 Bft) 0,00 %
29.03.2014 15:45 19,5 C 0,0 C 0,0 C 38 % 4 cb 1015,5 hPa 0,0 l/m 10,9 km/h (2 Bft) N 5 0 min 0,000 mm 0 W/m 4,8 C 19,5 C 10,9 km/h (2 Bft) 0,00 %
29.03.2014 15:50 19,4 C 0,0 C 0,0 C 37 % 6 cb 1015,5 hPa 0,0 l/m 9,7 km/h (2 Bft) O-NO 75 0 min 0,000 mm 0 W/m 4,3 C 19,4 C 9,7 km/h (2 Bft) 0,00 %
29.03.2014 15:55 19,4 C 0,0 C 0,0 C 38 % 4 cb 1015,5 hPa 0,0 l/m 12,1 km/h (2 Bft) O-NO 75 0 min 0,000 mm 0 W/m 4,7 C 19,4 C 12,1 km/h (2 Bft) 0,00 %
29.03.2014 16:00 19,0 C 0,0 C 0,0 C 38 % 6 cb 1015,5 hPa 0,0 l/m 10,3 km/h (2 Bft) O-SO 115 0 min 0,000 mm 0 W/m 4,4 C 19,0 C 10,3 km/h (2 Bft) 0,00 %
29.03.2014 16:05 19,0 C 0,0 C 0,0 C 38 % 5 cb 1015,5 hPa 0,0 l/m 6,7 km/h (2 Bft) O 100 0 min 0,000 mm 0 W/m 4,4 C 19,0 C 6,7 km/h (2 Bft) 0,00 %
29.03.2014 16:10 18,9 C 0,0 C 0,0 C 38 % 4 cb 1015,5 hPa 0,0 l/m 10,9 km/h (2 Bft) O 90 0 min 0,000 mm 0 W/m 4,3 C 18,9 C 10,9 km/h (2 Bft) 0,00 %
29.03.2014 16:15 18,9 C 0,0 C 0,0 C 37 % 5 cb 1015,5 hPa 0,0 l/m 10,0 km/h (2 Bft) N 10 0 min 0,000 mm 0 W/m 3,9 C 18,9 C 10,0 km/h (2 Bft) 0,00 %
29.03.2014 16:20 19,1 C 0,0 C 0,0 C 38 % 5 cb 1015,5 hPa 0,0 l/m 6,1 km/h (2 Bft) O-NO 65 0 min 0,000 mm 0 W/m 4,4 C 19,1 C 6,1 km/h (2 Bft) 0,00 %
29.03.2014 16:25 18,8 C 0,0 C 0,0 C 36 % 6 cb 1015,5 hPa 0,0 l/m 11,8 km/h (2 Bft) O-NO 70 0 min 0,000 mm 0 W/m 3,4 C 18,8 C 11,8 km/h (2 Bft) 0,00 %
29.03.2014 16:30 18,9 C 0,0 C 0,0 C 37 % 3 cb 1015,5 hPa 0,0 l/m 8,8 km/h (2 Bft) SW 235 0 min 0,000 mm 0 W/m 3,9 C 18,9 C 8,8 km/h (2 Bft) 0,00 %
29.03.2014 16:35 18,9 C 0,0 C 0,0 C 38 % 6 cb 1014,5 hPa 0,0 l/m 12,4 km/h (3 Bft) O-NO 75 0 min 0,000 mm 0 W/m 4,3 C 18,9 C 12,4 km/h (3 Bft) 0,00 %
29.03.2014 16:40 18,8 C 0,0 C 0,0 C 37 % 7 cb 1014,5 hPa 0,0 l/m 15,7 km/h (3 Bft) O 90 0 min 0,000 mm 0 W/m 3,8 C 18,8 C 15,7 km/h (3 Bft) 0,00 %
29.03.2014 16:45 18,8 C 0,0 C 0,0 C 38 % 3 cb 1014,5 hPa 0,0 l/m 12,1 km/h (2 Bft) O-NO 60 0 min 0,000 mm 0 W/m 4,2 C 18,8 C 12,1 km/h (2 Bft) 0,00 %
29.03.2014 16:50 18,6 C 0,0 C 0,0 C 38 % 2 cb 1014,5 hPa 0,0 l/m 9,4 km/h (2 Bft) O-NO 70 0 min 0,000 mm 0 W/m 4,0 C 18,6 C 9,4 km/h (2 Bft) 0,00 %
29.03.2014 16:55 18,2 C 0,0 C 0,0 C 38 % 8 cb 1014,5 hPa 0,0 l/m 13,9 km/h (3 Bft) NO 45 0 min 0,000 mm 0 W/m 3,7 C 18,2 C 13,9 km/h (3 Bft) 0,00 %
29.03.2014 17:00 18,2 C 0,0 C 0,0 C 38 % 5 cb 1014,5 hPa 0,0 l/m 16,6 km/h (3 Bft) N-NO 20 0 min 0,000 mm 0 W/m 3,7 C 18,2 C 16,6 km/h (3 Bft) 0,00 %
29.03.2014 17:05 18,4 C 0,0 C 0,0 C 38 % 5 cb 1014,5 hPa 0,0 l/m 10,6 km/h (2 Bft) N 10 0 min 0,000 mm 0 W/m 3,8 C 18,4 C 10,6 km/h (2 Bft) 0,00 %
29.03.2014 17:10 18,6 C 0,0 C 0,0 C 36 % 5 cb 1014,5 hPa 0,0 l/m 9,1 km/h (2 Bft) NO 50 0 min 0,000 mm 0 W/m 3,2 C 18,6 C 9,1 km/h (2 Bft) 0,00 %
29.03.2014 17:15 18,8 C 0,0 C 0,0 C 35 % 5 cb 1014,5 hPa 0,0 l/m 7,3 km/h (2 Bft) O-SO 110 0 min 0,000 mm 0 W/m 3,0 C 18,8 C 7,3 km/h (2 Bft) 0,00 %
29.03.2014 17:20 18,6 C 0,0 C 0,0 C 34 % 5 cb 1015,5 hPa 0,0 l/m 9,7 km/h (2 Bft) O-NO 65 0 min 0,000 mm 0 W/m 2,4 C 18,6 C 9,7 km/h (2 Bft) 0,00 %
29.03.2014 17:25 18,2 C 0,0 C 0,0 C 35 % 5 cb 1015,5 hPa 0,0 l/m 10,0 km/h (2 Bft) SW 215 0 min 0,000 mm 0 W/m 2,5 C 18,2 C 10,0 km/h (2 Bft) 0,00 %
29.03.2014 17:30 18,1 C 0,0 C 0,0 C 35 % 5 cb 1015,5 hPa 0,0 l/m 14,2 km/h (3 Bft) O 80 0 min 0,000 mm 0 W/m 2,4 C 18,1 C 14,2 km/h (3 Bft) 0,00 %
29.03.2014 17:35 17,7 C 0,0 C 0,0 C 35 % 5 cb 1015,5 hPa 0,0 l/m 12,7 km/h (3 Bft) O 95 0 min 0,000 mm 0 W/m 2,1 C 17,7 C 12,7 km/h (3 Bft) 0,00 %
29.03.2014 17:40 17,7 C 0,0 C 0,0 C 34 % 5 cb 1015,5 hPa 0,0 l/m 13,0 km/h (3 Bft) O 85 0 min 0,000 mm 0 W/m 1,6 C 17,7 C 13,0 km/h (3 Bft) 0,00 %
29.03.2014 17:45 17,6 C 0,0 C 0,0 C 34 % 5 cb 1015,5 hPa 0,0 l/m 11,5 km/h (2 Bft) O 80 0 min 0,000 mm 0 W/m 1,6 C 17,6 C 11,5 km/h (2 Bft) 0,00 %
29.03.2014 17:50 17,4 C 0,0 C 0,0 C 34 % 5 cb 1015,5 hPa 0,0 l/m 11,5 km/h (2 Bft) NO 55 0 min 0,000 mm 0 W/m 1,4 C 17,4 C 11,5 km/h (2 Bft) 0,00 %
29.03.2014 17:55 17,7 C 0,0 C 0,0 C 35 % 5 cb 1015,5 hPa 0,0 l/m 1,8 km/h (1 Bft) SO 140 0 min 0,000 mm 0 W/m 2,1 C 17,7 C 1,8 km/h (1 Bft) 0,00 %
29.03.2014 18:00 17,6 C 0,0 C 0,0 C 35 % 4 cb 1015,5 hPa 0,0 l/m 6,7 km/h (2 Bft) SO 145 0 min 0,000 mm 0 W/m 2,0 C 17,6 C 6,7 km/h (2 Bft) 0,00 %
29.03.2014 18:05 17,6 C 0,0 C 0,0 C 35 % 6 cb 1015,5 hPa 0,0 l/m 8,2 km/h (2 Bft) O-NO 75 0 min 0,000 mm 0 W/m 2,0 C 17,6 C 8,2 km/h (2 Bft) 0,00 %
29.03.2014 18:10 17,0 C 0,0 C 0,0 C 36 % 3 cb 1015,5 hPa 0,0 l/m 10,0 km/h (2 Bft) NO 45 0 min 0,000 mm 0 W/m 1,8 C 17,0 C 10,0 km/h (2 Bft) 0,00 %
29.03.2014 18:15 16,6 C 0,0 C 0,0 C 36 % 0 cb 1015,5 hPa 0,0 l/m 7,9 km/h (2 Bft) O-NO 60 0 min 0,000 mm 0 W/m 1,5 C 16,6 C 7,9 km/h (2 Bft) 0,00 %
29.03.2014 18:20 16,4 C 0,0 C 0,0 C 37 % 0 cb 1015,5 hPa 0,0 l/m 10,9 km/h (2 Bft) SO 140 0 min 0,000 mm 0 W/m 1,7 C 16,4 C 10,9 km/h (2 Bft) 0,00 %
29.03.2014 18:25 16,1 C 0,0 C 0,0 C 37 % 0 cb 1015,5 hPa 0,0 l/m 10,9 km/h (2 Bft) O 100 0 min 0,000 mm 0 W/m 1,4 C 16,1 C 10,9 km/h (2 Bft) 0,00 %
29.03.2014 18:30 16,0 C 0,0 C 0,0 C 37 % 0 cb 1015,5 hPa 0,0 l/m 6,7 km/h (2 Bft) S 190 0 min 0,000 mm 0 W/m 1,3 C 16,0 C 6,7 km/h (2 Bft) 0,00 %
29.03.2014 18:35 15,8 C 0,0 C 0,0 C 38 % 0 cb 1015,5 hPa 0,0 l/m 7,9 km/h (2 Bft) NO 40 0 min 0,000 mm 0 W/m 1,5 C 15,8 C 7,9 km/h (2 Bft) 0,00 %
29.03.2014 18:40 15,6 C 0,0 C 0,0 C 38 % 0 cb 1015,5 hPa 0,0 l/m 8,2 km/h (2 Bft) NO 55 0 min 0,000 mm 0 W/m 1,3 C 15,6 C 8,2 km/h (2 Bft) 0,00 %
29.03.2014 18:45 15,5 C 0,0 C 0,0 C 39 % 0 cb 1015,5 hPa 0,0 l/m 3,0 km/h (1 Bft) S-SW 205 0 min 0,000 mm 0 W/m 1,6 C 15,5 C 3,0 km/h (1 Bft) 0,00 %
29.03.2014 18:50 15,0 C 0,0 C 0,0 C 39 % 0 cb 1015,5 hPa 0,0 l/m 6,1 km/h (2 Bft) O 90 0 min 0,000 mm 0 W/m 1,2 C 15,0 C 6,1 km/h (2 Bft) 0,00 %
29.03.2014 18:55 14,8 C 0,0 C 0,0 C 40 % 0 cb 1015,5 hPa 0,0 l/m 2,7 km/h (1 Bft) O-SO 115 0 min 0,000 mm 0 W/m 1,3 C 14,8 C 2,7 km/h (1 Bft) 0,00 %
29.03.2014 19:00 14,4 C 0,0 C 0,0 C 41 % 0 cb 1015,5 hPa 0,0 l/m 2,1 km/h (1 Bft) W-NW 295 0 min 0,000 mm 0 W/m 1,3 C 14,4 C 2,1 km/h (1 Bft) 0,00 %
29.03.2014 19:05 14,3 C 0,0 C 0,0 C 41 % 0 cb 1015,5 hPa 0,0 l/m 0,3 km/h (0 Bft) NW 305 0 min 0,000 mm 0 W/m 1,2 C 14,3 C 0,3 km/h (0 Bft) 0,00 %
29.03.2014 19:10 14,0 C 0,0 C 0,0 C 43 % 0 cb 1015,5 hPa 0,0 l/m 0,0 km/h (0 Bft) N-NW 345 0 min 0,000 mm 0 W/m 1,6 C 14,0 C 0,0 km/h (0 Bft) 0,00 %
29.03.2014 19:15 13,7 C 0,0 C 0,0 C 43 % 0 cb 1015,5 hPa 0,0 l/m 0,0 km/h (0 Bft) NO 50 0 min 0,000 mm 0 W/m 1,4 C 13,7 C 0,0 km/h (0 Bft) 0,00 %
29.03.2014 19:20 13,7 C 0,0 C 0,0 C 44 % 0 cb 1015,5 hPa 0,0 l/m 2,1 km/h (1 Bft) W 275 0 min 0,000 mm 0 W/m 1,7 C 13,7 C 2,1 km/h (1 Bft) 0,00 %
29.03.2014 19:25 13,3 C 0,0 C 0,0 C 45 % 0 cb 1015,5 hPa 0,0 l/m 0,0 km/h (0 Bft) N-NO 30 0 min 0,000 mm 0 W/m 1,6 C 13,3 C 0,0 km/h (0 Bft) 0,00 %
29.03.2014 19:30 13,3 C 0,0 C 0,0 C 45 % 0 cb 1015,5 hPa 0,0 l/m 0,3 km/h (0 Bft) N-NW 340 0 min 0,000 mm 0 W/m 1,6 C 13,3 C 0,3 km/h (0 Bft) 0,00 %
29.03.2014 19:35 12,9 C 0,0 C 0,0 C 46 % 0 cb 1015,5 hPa 0,0 l/m 0,0 km/h (0 Bft) O-NO 65 0 min 0,000 mm 0 W/m 1,6 C 12,9 C 0,0 km/h (0 Bft) 0,00 %
29.03.2014 19:40 12,7 C 0,0 C 0,0 C 46 % 0 cb 1015,5 hPa 0,0 l/m 0,9 km/h (0 Bft) N 0 0 min 0,000 mm 0 W/m 1,4 C 12,7 C 0,9 km/h (0 Bft) 0,00 %
29.03.2014 19:45 12,6 C 0,0 C 0,0 C 47 % 0 cb 1015,5 hPa 0,0 l/m 1,8 km/h (1 Bft) N 0 0 min 0,000 mm 0 W/m 1,6 C 12,6 C 1,8 km/h (1 Bft) 0,00 %
29.03.2014 19:50 12,6 C 0,0 C 0,0 C 47 % 0 cb 1015,5 hPa 0,0 l/m 0,0 km/h (0 Bft) N-NW 345 0 min 0,000 mm 0 W/m 1,6 C 12,6 C 0,0 km/h (0 Bft) 0,00 %
29.03.2014 19:55 12,5 C 0,0 C 0,0 C 47 % 0 cb 1015,5 hPa 0,0 l/m 0,0 km/h (0 Bft) N-NW 340 0 min 0,000 mm 0 W/m 1,5 C 12,5 C 0,0 km/h (0 Bft) 0,00 %
29.03.2014 20:00 12,3 C 0,0 C 0,0 C 48 % 0 cb 1015,5 hPa 0,0 l/m 0,0 km/h (0 Bft) N-NW 345 0 min 0,000 mm 0 W/m 1,6 C 12,3 C 0,0 km/h (0 Bft) 0,00 %
29.03.2014 20:05 12,1 C 0,0 C 0,0 C 49 % 0 cb 1015,5 hPa 0,0 l/m 0,0 km/h (0 Bft) N 0 0 min 0,000 mm 0 W/m 1,7 C 12,1 C 0,0 km/h (0 Bft) 0,00 %
29.03.2014 20:10 11,9 C 0,0 C 0,0 C 49 % 0 cb 1015,5 hPa 0,0 l/m 0,0 km/h (0 Bft) NW 325 0 min 0,000 mm 0 W/m 1,5 C 11,9 C 0,0 km/h (0 Bft) 0,00 %
29.03.2014 20:15 12,1 C 0,0 C 0,0 C 49 % 0 cb 1015,5 hPa 0,0 l/m 0,0 km/h (0 Bft) N-NW 345 0 min 0,000 mm 0 W/m 1,7 C 12,1 C 0,0 km/h (0 Bft) 0,00 %
29.03.2014 20:20 12,4 C 0,0 C 0,0 C 48 % 0 cb 1016,5 hPa 0,0 l/m 0,3 km/h (0 Bft) N-NW 345 0 min 0,000 mm 0 W/m 1,7 C 12,4 C 0,3 km/h (0 Bft) 0,00 %
29.03.2014 20:25 12,3 C 0,0 C 0,0 C 48 % 0 cb 1016,5 hPa 0,0 l/m 2,1 km/h (1 Bft) N-NW 330 0 min 0,000 mm 0 W/m 1,6 C 12,3 C 2,1 km/h (1 Bft) 0,00 %
29.03.2014 20:30 12,2 C 0,0 C 0,0 C 49 % 0 cb 1016,5 hPa 0,0 l/m 0,0 km/h (0 Bft) N-NW 340 0 min 0,000 mm 0 W/m 1,8 C 12,2 C 0,0 km/h (0 Bft) 0,00 %
29.03.2014 20:35 12,0 C 0,0 C 0,0 C 49 % 0 cb 1015,5 hPa 0,0 l/m 0,0 km/h (0 Bft) NW 320 0 min 0,000 mm 0 W/m 1,6 C 12,0 C 0,0 km/h (0 Bft) 0,00 %
29.03.2014 20:40 11,8 C 0,0 C 0,0 C 50 % 0 cb 1015,5 hPa 0,0 l/m 0,9 km/h (0 Bft) N 10 0 min 0,000 mm 0 W/m 1,7 C 11,8 C 0,9 km/h (0 Bft) 0,00 %
29.03.2014 20:45 11,7 C 0,0 C 0,0 C 50 % 0 cb 1015,5 hPa 0,0 l/m 2,7 km/h (1 Bft) W-SW 250 0 min 0,000 mm 0 W/m 1,6 C 11,7 C 2,7 km/h (1 Bft) 0,00 %
29.03.2014 20:50 11,5 C 0,0 C 0,0 C 51 % 0 cb 1015,5 hPa 0,0 l/m 0,0 km/h (0 Bft) NW 310 0 min 0,000 mm 0 W/m 1,7 C 11,5 C 0,0 km/h (0 Bft) 0,00 %
29.03.2014 20:55 11,6 C 0,0 C 0,0 C 51 % 0 cb 1015,5 hPa 0,0 l/m 1,8 km/h (1 Bft) N-NW 340 0 min 0,000 mm 0 W/m 1,8 C 11,6 C 1,8 km/h (1 Bft) 0,00 %
29.03.2014 21:00 11,6 C 0,0 C 0,0 C 51 % 0 cb 1015,5 hPa 0,0 l/m 2,7 km/h (1 Bft) N 10 0 min 0,000 mm 0 W/m 1,8 C 11,6 C 2,7 km/h (1 Bft) 0,00 %
29.03.2014 21:05 11,5 C 0,0 C 0,0 C 51 % 0 cb 1015,5 hPa 0,0 l/m 3,6 km/h (1 Bft) NW 315 0 min 0,000 mm 0 W/m 1,7 C 11,5 C 3,6 km/h (1 Bft) 0,00 %
29.03.2014 21:10 11,4 C 0,0 C 0,0 C 51 % 0 cb 1015,5 hPa 0,0 l/m 6,1 km/h (2 Bft) N-NW 345 0 min 0,000 mm 0 W/m 1,6 C 11,4 C 6,1 km/h (2 Bft) 0,00 %
29.03.2014 21:15 11,3 C 0,0 C 0,0 C 53 % 0 cb 1015,5 hPa 0,0 l/m 1,8 km/h (1 Bft) N-NW 330 0 min 0,000 mm 0 W/m 2,1 C 11,3 C 1,8 km/h (1 Bft) 0,00 %
29.03.2014 21:20 11,2 C 0,0 C 0,0 C 53 % 0 cb 1015,5 hPa 0,0 l/m 0,0 km/h (0 Bft) N-NW 340 0 min 0,000 mm 0 W/m 2,0 C 11,2 C 0,0 km/h (0 Bft) 0,00 %
29.03.2014 21:25 11,2 C 0,0 C 0,0 C 53 % 0 cb 1015,5 hPa 0,0 l/m 3,0 km/h (1 Bft) N-NO 15 0 min 0,000 mm 0 W/m 2,0 C 11,2 C 3,0 km/h (1 Bft) 0,00 %
29.03.2014 21:30 11,3 C 0,0 C 0,0 C 53 % 0 cb 1015,5 hPa 0,0 l/m 1,2 km/h (1 Bft) N 355 0 min 0,000 mm 0 W/m 2,1 C 11,3 C 1,2 km/h (1 Bft) 0,00 %
29.03.2014 21:35 11,2 C 0,0 C 0,0 C 53 % 0 cb 1015,5 hPa 0,0 l/m 0,0 km/h (0 Bft) NO 50 0 min 0,000 mm 0 W/m 2,0 C 11,2 C 0,0 km/h (0 Bft) 0,00 %
29.03.2014 21:40 11,1 C 0,0 C 0,0 C 54 % 0 cb 1015,5 hPa 0,0 l/m 0,9 km/h (0 Bft) N 5 0 min 0,000 mm 0 W/m 2,2 C 11,1 C 0,9 km/h (0 Bft) 0,00 %
29.03.2014 21:45 11,1 C 0,0 C 0,0 C 54 % 0 cb 1015,5 hPa 0,0 l/m 3,9 km/h (1 Bft) N 350 0 min 0,000 mm 0 W/m 2,2 C 11,1 C 3,9 km/h (1 Bft) 0,00 %
29.03.2014 21:50 11,2 C 0,0 C 0,0 C 54 % 0 cb 1015,5 hPa 0,0 l/m 4,2 km/h (1 Bft) N-NW 335 0 min 0,000 mm 0 W/m 2,2 C 11,2 C 4,2 km/h (1 Bft) 0,00 %
29.03.2014 21:55 11,1 C 0,0 C 0,0 C 54 % 0 cb 1015,5 hPa 0,0 l/m 1,8 km/h (1 Bft) NO 45 0 min 0,000 mm 0 W/m 2,2 C 11,1 C 1,8 km/h (1 Bft) 0,00 %
29.03.2014 22:00 11,0 C 0,0 C 0,0 C 54 % 0 cb 1015,5 hPa 0,0 l/m 3,3 km/h (1 Bft) N-NO 15 0 min 0,000 mm 0 W/m 2,1 C 11,0 C 3,3 km/h (1 Bft) 0,00 %
29.03.2014 22:05 11,0 C 0,0 C 0,0 C 55 % 0 cb 1015,5 hPa 0,0 l/m 0,6 km/h (0 Bft) N-NW 340 0 min 0,000 mm 0 W/m 2,3 C 11,0 C 0,6 km/h (0 Bft) 0,00 %
29.03.2014 22:10 11,0 C 0,0 C 0,0 C 55 % 0 cb 1015,5 hPa 0,0 l/m 3,0 km/h (1 Bft) N 350 0 min 0,000 mm 0 W/m 2,3 C 11,0 C 3,0 km/h (1 Bft) 0,00 %
29.03.2014 22:15 11,1 C 0,0 C 0,0 C 54 % 0 cb 1015,5 hPa 0,0 l/m 2,4 km/h (1 Bft) NW 325 0 min 0,000 mm 0 W/m 2,2 C 11,1 C 2,4 km/h (1 Bft) 0,00 %
29.03.2014 22:20 11,1 C 0,0 C 0,0 C 54 % 0 cb 1015,5 hPa 0,0 l/m 0,6 km/h (0 Bft) N 5 0 min 0,000 mm 0 W/m 2,2 C 11,1 C 0,6 km/h (0 Bft) 0,00 %
29.03.2014 22:25 11,2 C 0,0 C 0,0 C 54 % 0 cb 1015,5 hPa 0,0 l/m 4,2 km/h (1 Bft) N 355 0 min 0,000 mm 0 W/m 2,2 C 11,2 C 4,2 km/h (1 Bft) 0,00 %
29.03.2014 22:30 11,2 C 0,0 C 0,0 C 54 % 0 cb 1015,5 hPa 0,0 l/m 3,9 km/h (1 Bft) NW 310 0 min 0,000 mm 0 W/m 2,2 C 11,2 C 3,9 km/h (1 Bft) 0,00 %
29.03.2014 22:35 11,1 C 0,0 C 0,0 C 54 % 0 cb 1015,5 hPa 0,0 l/m 3,6 km/h (1 Bft) N-NW 345 0 min 0,000 mm 0 W/m 2,2 C 11,1 C 3,6 km/h (1 Bft) 0,00 %
29.03.2014 22:40 11,0 C 0,0 C 0,0 C 55 % 0 cb 1015,5 hPa 0,0 l/m 4,2 km/h (1 Bft) N 355 0 min 0,000 mm 0 W/m 2,3 C 11,0 C 4,2 km/h (1 Bft) 0,00 %
29.03.2014 22:45 10,8 C 0,0 C 0,0 C 55 % 0 cb 1015,5 hPa 0,0 l/m 0,9 km/h (0 Bft) N-NO 20 0 min 0,000 mm 0 W/m 2,1 C 10,8 C 0,9 km/h (0 Bft) 0,00 %
29.03.2014 22:50 10,8 C 0,0 C 0,0 C 55 % 0 cb 1015,5 hPa 0,0 l/m 1,8 km/h (1 Bft) N-NO 20 0 min 0,000 mm 0 W/m 2,1 C 10,8 C 1,8 km/h (1 Bft) 0,00 %
29.03.2014 22:55 10,7 C 0,0 C 0,0 C 56 % 0 cb 1015,5 hPa 0,0 l/m 4,2 km/h (1 Bft) N 350 0 min 0,000 mm 0 W/m 2,3 C 10,7 C 4,2 km/h (1 Bft) 0,00 %
29.03.2014 23:00 10,7 C 0,0 C 0,0 C 56 % 0 cb 1015,5 hPa 0,0 l/m 4,2 km/h (1 Bft) N 5 0 min 0,000 mm 0 W/m 2,3 C 10,7 C 4,2 km/h (1 Bft) 0,00 %
29.03.2014 23:05 10,6 C 0,0 C 0,0 C 56 % 0 cb 1015,5 hPa 0,0 l/m 2,1 km/h (1 Bft) N-NO 15 0 min 0,000 mm 0 W/m 2,2 C 10,6 C 2,1 km/h (1 Bft) 0,00 %
29.03.2014 23:10 10,6 C 0,0 C 0,0 C 56 % 0 cb 1015,5 hPa 0,0 l/m 3,0 km/h (1 Bft) N-NW 345 0 min 0,000 mm 0 W/m 2,2 C 10,6 C 3,0 km/h (1 Bft) 0,00 %
29.03.2014 23:15 10,7 C 0,0 C 0,0 C 56 % 0 cb 1015,5 hPa 0,0 l/m 3,9 km/h (1 Bft) NW 315 0 min 0,000 mm 0 W/m 2,3 C 10,7 C 3,9 km/h (1 Bft) 0,00 %
29.03.2014 23:20 10,6 C 0,0 C 0,0 C 56 % 0 cb 1015,5 hPa 0,0 l/m 1,8 km/h (1 Bft) W-SW 255 0 min 0,000 mm 0 W/m 2,2 C 10,6 C 1,8 km/h (1 Bft) 0,00 %
29.03.2014 23:25 10,6 C 0,0 C 0,0 C 56 % 0 cb 1015,5 hPa 0,0 l/m 3,6 km/h (1 Bft) N-NO 15 0 min 0,000 mm 0 W/m 2,2 C 10,6 C 3,6 km/h (1 Bft) 0,00 %
29.03.2014 23:30 10,6 C 0,0 C 0,0 C 56 % 0 cb 1015,5 hPa 0,0 l/m 2,4 km/h (1 Bft) N-NO 15 0 min 0,000 mm 0 W/m 2,2 C 10,6 C 2,4 km/h (1 Bft) 0,00 %
29.03.2014 23:35 10,6 C 0,0 C 0,0 C 56 % 0 cb 1015,5 hPa 0,0 l/m 2,4 km/h (1 Bft) N 10 0 min 0,000 mm 0 W/m 2,2 C 10,6 C 2,4 km/h (1 Bft) 0,00 %
29.03.2014 23:40 10,6 C 0,0 C 0,0 C 56 % 0 cb 1015,5 hPa 0,0 l/m 4,2 km/h (1 Bft) N-NW 340 0 min 0,000 mm 0 W/m 2,2 C 10,6 C 4,2 km/h (1 Bft) 0,00 %
29.03.2014 23:45 10,8 C 0,0 C 0,0 C 56 % 0 cb 1015,5 hPa 0,0 l/m 4,5 km/h (1 Bft) N-NO 15 0 min 0,000 mm 0 W/m 2,4 C 10,8 C 4,5 km/h (1 Bft) 0,00 %
29.03.2014 23:50 10,7 C 0,0 C 0,0 C 56 % 0 cb 1015,5 hPa 0,0 l/m 2,4 km/h (1 Bft) N-NW 340 0 min 0,000 mm 0 W/m 2,3 C 10,7 C 2,4 km/h (1 Bft) 0,00 %
29.03.2014 23:55 10,6 C 0,0 C 0,0 C 56 % 0 cb 1015,5 hPa 0,0 l/m 1,8 km/h (1 Bft) N 5 0 min 0,000 mm 0 W/m 2,2 C 10,6 C 1,8 km/h (1 Bft) 0,00 %
_ Min-Zeit 05:45 00:00 00:00 17:20 00:00 16:35 - 19:10 - - - - - 05:45 05:30 19:10 00:00
Minimum _ 4,7 C 0,0 C 0,0 C 34 % 0 cb 1014,5 hPa - 0,0 km/h (0 Bft) - - - - - 0,5 C 2,2 C 0,0 km/h (0 Bft) 0,00 %
_ Max-Zeit 15:25 00:00 00:00 05:55 09:55 09:05 00:00 17:00 - - 00:00 00:00 00:00 13:35 15:25 17:00 00:00
Maximum _ 20,3 C 0,0 C 0,0 C 75 % 8 cb 1018,5 hPa 0,0 l/m 16,6 km/h
N-NO (3 Bft)
- - 0 min 0,000 mm 0 W/m 5,9 C 20,3 C 16,6 km/h
N-NO (3 Bft)
0,00 %
Durchschnitt _ 11,7 C 0,0 C 0,0 C 56 % 2 cb 1016,5 hPa #0,0 l/m 7,7 km/h (2 Bft) N - #0 min. #0,000 mm 0 W/m 2,6 C 10,9 C 7,7 km/h (2 Bft) 0,00 %
Wetterstation Gdesweiler